Regional Weather Roundup
Issued by NWS

Home | Current Version | Previous Version | Text Only | Print | Product List | Glossary Off
Versions: 1 2 3 4 5 6 7 8 9 10 11 12 13 14 15 16 17 18 19 20 21 22 23 24 25 26 27 28 29 30 31 32 33 34 35 36 37 38 39 40 41 42 43 44 45 46 47 48 49 50

000
ASUS43 KMPX 220401
RWRMN
WEATHER ROUNDUP FOR MINNESOTA
NATIONAL WEATHER SERVICE TWIN CITIES/CHANHASSEN MN
1000 PM CST TUE NOV 21 2017


NOTE: "FAIR" INDICATES FEW OR NO CLOUDS BELOW 12,000 FEET WITH NO
SIGNIFICANT WEATHER AND/OR OBSTRUCTIONS TO VISIBILITY. N/A MEANS
CURRENT SKY AND/OR WEATHER CONDITIONS ARE NOT AVAILABLE.

MNZ060>063-068>070-220500-
   Twin Cities Metro

CITY           SKY/WX    TMP DP  RH WIND       PRES   REMARKS
TWIN CITIES    CLOUDY    20  11  68 N13       30.30S WCI   7
ST PAUL        CLEAR     20  10  65 NW13      30.32R WCI   7
CRYSTAL        CLOUDY    19   8  62 NW9       30.30R WCI   8
BLAINE         CLOUDY    19  12  73 NW9       30.29S WCI   9
LAKEVILLE      CLOUDY    19  10  68 NW12      30.30R WCI   7
EDEN PRAIRIE   CLOUDY    21  11  65 N15       30.30R WCI   8
SOUTH ST PAUL  CLEAR     21  10  64 NW9       30.30R WCI  10
LAKE ELMO      FAIR      21  12  68 NW8       30.30R WCI  12
$$
MNZ001>005-007-008-013>017-022>024-027-028-220500-
   Northwest Minnesota

CITY           SKY/WX    TMP DP  RH WIND       PRES   REMARKS
BEMIDJI        CLOUDY    11   8  86 W7        30.26S WCI   0
HALLOCK        CLOUDY    10   7  85 W5        30.30R WCI   2
ROSEAU         CLOUDY    14   9  79 W8        30.26R WCI   3
WARROAD        CLOUDY    12   9  85 W8        30.25R WCI   1
CROOKSTON      CLOUDY    12   9  85 W6        30.33R WCI   3
FOSSTON        CLOUDY     9   3  78 SW7       30.29R WCI  -3
DETROIT LAKES  CLOUDY    14  12  92 W7        30.29F WCI   4
MOORHEAD       CLOUDY    12   7  79 CALM      30.34F
PARK RAPIDS    PTCLDY    12   7  80 NW5       30.26S WCI   4
MAHNOMEN       FAIR      12   9  85 W8        30.29S WCI   1
$$
MNZ006-009>011-018-025>026-220500-
   North Central Minnesota

CITY           SKY/WX    TMP DP  RH WIND       PRES   REMARKS
BAUDETTE         N/A     11   7  84 W3        30.22S
FLAG ISLAND    CLOUDY    12   9  85 W10       30.22R WCI  -1
INTL FALLS       N/A     11   6  81 W3        30.21S
WASKISH        CLOUDY    14  10  85 W12       30.25S WCI   0
BIG FORK       CLEAR     12   9  85 W3        30.23R
LONGVILLE      CLOUDY    14   9  79 W5        30.26S WCI   6
GRAND RAPIDS   FLURRIES  16  10  77 NW10      30.26S WCI   4
CRANE LAKE     FLURRIES  16  10  79 W5        30.22R WCI   9
ORR            FLURRIES  12   9  85 NW7       30.19R WCI   2
COOK           LGT SNOW  14  10  85 W7        30.22R WCI   4
WALKER         FAIR      12   8  82 W6        30.26S WCI   3
$$
MNZ012-019>021-037-220500-
   Northeast Minnesota

CITY           SKY/WX    TMP DP  RH WIND       PRES   REMARKS
DULUTH         FLURRIES  15   9  76 NW12      30.21R WCI   2
ELY            FLURRIES  16  10  79 W7        30.18R WCI   6
HIBBING        CLOUDY    14   8  77 NW9       30.23R WCI   2
EVELETH        FLURRIES  15   8  74 NW9       30.23R WCI   3
DULUTH HARBOR  CLOUDY    21  10  63 W6        30.29R WCI  14
TWO HARBORS    LGT SNOW  19  12  73 W3        30.20S
SILVER BAY     CLEAR     18  10  73 NW3       30.18R
GRAND MARAIS     N/A     21  11  65 VRB3      30.18
G MARAIS ARPRT MOCLDY    12   7  79 W6        30.09R WCI   3
$$
MNZ029>031-032-039>041-046>048-054>057-064-220500-
   West Central Minnesota

CITY           SKY/WX    TMP DP  RH WIND       PRES   REMARKS
FERGUS FALLS   CLOUDY    14   9  79 NW6       30.36F WCI   5
WHEATON        CLOUDY    14   9  79 NW3       30.37F
MORRIS         PTCLDY    16  10  79 NW7       30.33R WCI   6
ALEXANDRIA     CLOUDY    16  10  77 NW14      30.30S WCI   2
ELBOW LAKE     FAIR      15  10  81 NW7       30.33S WCI   5
WADENA         CLOUDY    12   9  85 CALM      30.29R
GLENWOOD       PTCLDY    16  10  79 NW7       30.31R WCI   6
APPLETON       PTCLDY    18  10  73 NW6       30.36R WCI   9
BENSON         MOCLDY    16  10  79 N7        30.36R WCI   6
ORTONVILLE     CLOUDY    16   9  73 MISG      30.35R
MADISON        CLOUDY    18  10  73 NW6       30.36R WCI   9
WILLMAR        FAIR      18  12  79 NW7       30.34S WCI   8
$$
MNZ033>034-036-042>043-049>051-058-059-220500-
   Central Minnesota

CITY           SKY/WX    TMP DP  RH WIND       PRES   REMARKS
ST CLOUD       CLOUDY    16   9  74 NW12      30.31S WCI   3
SAUK CENTRE    FAIR      16   9  75 NW7       30.31S WCI   6
PAYNESVILLE    CLOUDY    17  13  82 N7        30.32F WCI   8
AITKIN         CLOUDY    16   9  73 NW8       30.27R WCI   5
PINE RIVER     PTCLDY    12   7  79 CALM      30.30S
BRAINERD       PTCLDY    16   8  71 NW6       30.29R WCI   7
STAPLES        CLOUDY    10   7  85 W5        30.29S WCI   2
LONG PRAIRIE   FAIR      14   9  79 W5        30.30S WCI   6
LITTLE FALLS   CLOUDY    16   5  62 CALM      30.31R
LITCHFIELD     CLOUDY    19  12  73 NW10      30.32S WCI   8
BUFFALO        CLOUDY    18  10  71 NW7       30.33R WCI   9
MAPLE LAKE     CLOUDY    19  13  77 NW8       30.32S WCI   9
HUTCHINSON     CLOUDY    20  13  73 NW9       30.33S WCI   9
$$
MNZ037-044-045-052-053-220500-
   East Central Minnesota

CITY           SKY/WX    TMP DP  RH WIND       PRES   REMARKS
PRINCETON      CLOUDY    16  10  79 W6        30.30S WCI   7
MORA           CLOUDY    18  10  73 N6        30.30S WCI   9
CAMBRIDGE      PTCLDY    19   9  63 W6        30.30R WCI  11
RUSH CITY      PTCLDY    18   9  68 NW5       30.29S WCI  11
MOOSE LAKE     FLURRIES  19  10  68 NW6       30.25S WCI  11
HINCKLEY       FAIR      19  10  68 NW7       30.28S WCI  10
CLOQUET        CLOUDY    16   9  73 NW9       30.23R WCI   4
MCGREGOR       CLOUDY    19  12  73 NW8       30.26S WCI   9
$$
MNZ071>073-080-081-089-090-097-098-220500-
   Southwest Minnesota

CITY           SKY/WX    TMP DP  RH WIND       PRES   REMARKS
MONTEVIDEO     CLOUDY    18   9  68 N5        30.35R WCI  11
GRANITE FALLS  PTCLDY    16  11  79 W6        30.37S WCI   8
CANBY          CLOUDY    16   9  76 W5        30.36S WCI   8
MARSHALL       CLOUDY    15   8  73 NW7       30.35S WCI   5
REDWOOD FALLS  CLOUDY    19   9  65 NW7       30.34S WCI  10
OLIVIA         CLOUDY    19  12  73 NW7       30.32F WCI  10
PIPESTONE      CLOUDY    10   5  79 W3        30.31F
WINDOM           N/A     18   3  53 NW8       30.32S WCI   7
WORTHINGTON    CLOUDY    15   8  73 NW7       30.33S WCI   5
JACKSON        CLOUDY    19   9  63 NW9       30.32S WCI   9
SLAYTON        CLOUDY    15   9  75 NW9       30.33S WCI   3
$$
MNZ065>067-074>077-082>085-091>093-220500-
   South Central Minnesota

CITY           SKY/WX    TMP DP  RH WIND       PRES   REMARKS
NEW ULM        PTCLDY    19   9  63 CALM      30.33S
ST JAMES       PTCLDY    19  10  68 NW9       30.35R WCI   9
FAIRMONT       PTCLDY    20  11  68 NW13      30.33S WCI   7
GLENCOE        CLOUDY    21  14  73 NW8       30.32R WCI  12
FARIBAULT      CLOUDY    19  12  73 NW7       30.30S WCI  10
OWATONNA       CLOUDY    19  12  73 NW9       30.29S WCI   9
WASECA         CLOUDY    19  12  73 NW8       30.32S WCI   9
ALBERT LEA     CLOUDY    19  10  68 NW12G18   30.29S WCI   7
$$
MNZ078>079-086>088-094>096-220500-
   Southeast Minnesota

CITY           SKY/WX    TMP DP  RH WIND       PRES   REMARKS
ROCHESTER      CLEAR     19  12  74 NW13      30.26R WCI   6
RED WING       CLEAR     21   9  58 NW9       30.28R WCI  11
STANTON        CLEAR     21  12  66 NW10      30.30R WCI  10
DODGE CENTER   CLEAR     19  10  68 NW12      30.26S WCI   7
WINONA         CLEAR     25  14  63 NW8       30.28R WCI  16
AUSTIN         CLEAR     19  12  73 NW12      30.27S WCI   7
PRESTON        CLEAR     19  11  70 NW9       30.26R WCI   9
$$
ABBREVIATIONS USED IN REMARKS
   TC - TEMPERATURES IN CELSIUS
  WCI - WIND CHILL INDEX
   HX - HEAT INDEX
  VSB - VISIBILITY
$$



USA.gov is the U.S. government's official web portal to all federal, state and local government web resources and services.